Regional Weather Roundup
Issued by NWS

Home | Current Version | Previous Version | Text Only | Print | Product List | Glossary On
Versions: 1 2 3 4 5 6 7 8 9 10 11 12 13 14 15 16 17 18 19 20 21 22 23 24 25 26 27 28 29 30 31 32 33 34 35 36 37 38 39 40 41 42 43 44 45 46 47 48 49 50
000
ASUS43 KMPX 232110
RWRMN
WEATHER ROUNDUP FOR MINNESOTA
NATIONAL WEATHER SERVICE TWIN CITIES/CHANHASSEN MN
300 PM CST SUN NOV 23 2014


NOTE: "FAIR" INDICATES FEW OR NO CLOUDS BELOW 12,000 FEET WITH NO
SIGNIFICANT WEATHER AND/OR OBSTRUCTIONS TO VISIBILITY. N/A MEANS
CURRENT SKY AND/OR WEATHER CONDITIONS ARE NOT AVAILABLE.

MNZ060>063-068>070-232200-
   Twin Cities Metro

CITY           SKY/WX    TMP DP  RH WIND       PRES   REMARKS
TWIN CITIES    CLOUDY    43  37  79 NW12      29.39S
ST PAUL        CLOUDY    43  41  93 NW10      29.39F
CRYSTAL        CLOUDY    42  37  82 NW13      29.39F
LAKEVILLE      CLOUDY    43  39  87 W16       29.37S
EDEN PRAIRIE   CLOUDY    43  37  79 NW14      29.38S
SOUTH ST PAUL  CLOUDY    45  42  89 NW7       29.37F
LAKE ELMO      CLOUDY    43  43 100 N7        29.37F FOG
$$
MNZ001>005-007-008-013>017-022>024-027-028-232200-
   Northwest Minnesota

CITY           SKY/WX    TMP DP  RH WIND       PRES   REMARKS
BEMIDJI        CLOUDY    37  32  83 W6        29.38F
HALLOCK        CLOUDY    23  21  93 NW18G26   29.46R FOG     WCI   9
ROSEAU         CLOUDY    34  28  80 NW9       29.39S WCI  26
WARROAD        CLOUDY    36  32  87 W3        29.39R FOG
THIEF RVR FALL CLOUDY    34  30  86 NW16      29.41R WCI  23
CROOKSTON      CLOUDY    32  30  93 N13       29.45R WCI  22
FOSSTON        CLOUDY    36  34  93 SW7       29.40S
DETROIT LAKES  CLOUDY    36  30  80 NW20G26   29.43R
MOORHEAD       CLOUDY    36  27  69 W15G23    29.46F
PARK RAPIDS    CLOUDY    40  34  79 W7        29.38F
MAHNOMEN       CLOUDY    36  31  83 W17       29.41S
$$
MNZ006-009>011-018-025>026-232200-
   North Central Minnesota

CITY           SKY/WX    TMP DP  RH WIND       PRES   REMARKS
BAUDETTE       LGT RAIN  35  33  92 CALM      29.38S FOG
FLAG ISLAND    SNOW      32  30  93 CALM      29.37S VSB 1/4
INTL FALLS     CLOUDY    36  32  85 CALM      29.38S
WASKISH        DRIZZLE   37  34  87 CALM      29.38F
BIG FORK       CLOUDY    37  34  87 CALM      29.38F FOG
LONGVILLE      CLOUDY    39  36  87 CALM      29.38F FOG
GRAND RAPIDS   CLOUDY    36  34  93 W5        29.38F
CRANE LAKE     CLOUDY    36  34  93 CALM      29.40R
ORR            CLOUDY    36  30  80 CALM      29.35S
COOK           CLOUDY    36  34  93 W6        29.37F FOG
WALKER         CLOUDY    39  33  80 W6        29.38F
$$
MNZ012-019>021-037-232200-
   Northeast Minnesota

CITY           SKY/WX    TMP DP  RH WIND       PRES   REMARKS
DULUTH         CLOUDY    40  36  86 NW7       29.37F FOG
ELY            CLOUDY    36  36 100 SW3       29.36S FOG
HIBBING        CLOUDY    37  33  85 W6        29.38S FOG
EVELETH        CLOUDY    36  36 100 W3        29.39S FOG
DULUTH HARBOR  RAIN      37  37 100 CALM      29.39F VSB 1/2
TWO HARBORS    HAZE      43  37  81 S3        29.36S VSB 1/4
SILVER BAY     FOG       41  39  93 S3        29.36S VSB 3/4
GRAND MARAIS     N/A     40  39  97 NE6       29.39F
G MARAIS ARPRT CLOUDY    37  36  93 S3        29.37S FOG
$$
MNZ029>031-032-039>041-046>048-054>057-064-232200-
   West Central Minnesota

CITY           SKY/WX    TMP DP  RH WIND       PRES   REMARKS
FERGUS FALLS   CLOUDY    36  27  69 NW20G26   29.46R
WHEATON        CLOUDY    37  28  70 W16G24    29.48S
MORRIS           N/A     39  32  75 NW14      29.44S
ALEXANDRIA     CLOUDY    37  33  85 NW10      29.43S
ELBOW LAKE       N/A     37  34  87 W15       29.43S
WADENA         CLOUDY    37  34  87 W7        29.41S
GLENWOOD       CLOUDY    37  34  87 W12       29.43F
APPLETON       PTSUNNY   39  30  70 NW15      29.46S
BENSON         CLOUDY    37  34  87 NW8       29.45S
ORTONVILLE     PTSUNNY   39  28  65 NW12      29.47R
MADISON        PTSUNNY   43  34  70 NW10      29.47S
WILLMAR        CLOUDY    37  34  87 NW8       29.45F
$$
MNZ033>034-036-042>043-049>051-058-059-232200-
   Central Minnesota

CITY           SKY/WX    TMP DP  RH WIND       PRES   REMARKS
ST CLOUD       LGT RAIN  39  35  86 W7        29.41F FOG
SAUK CENTRE    CLOUDY    36  35  96 W7        29.42F
PAYNESVILLE    CLOUDY    34  34 100 SW9       29.43F WCI  26
AITKIN         CLOUDY    43  36  75 NW3       29.37F
PINE RIVER     CLOUDY    41  36  81 CALM      29.43F
BRAINERD       CLOUDY    38  34  85 NW5       29.39F
STAPLES        CLOUDY    37  34  87 W8        29.40S
LONG PRAIRIE   CLOUDY    36  34  93 W7        29.42S
LITTLE FALLS   CLOUDY    37  34  87 CALM      29.41F
LITCHFIELD     DRIZZLE   37  37 100 W6        29.43F
BUFFALO        LGT RAIN  38  36  92 W7        29.42F
MAPLE LAKE     LGT RAIN  38  38  99 W7        29.42S
$$
MNZ037-044-045-052-053-232200-
   East Central Minnesota

CITY           SKY/WX    TMP DP  RH WIND       PRES   REMARKS
PRINCETON      LGT RAIN  37  37 100 CALM      29.40F
MORA           LGT RAIN  36  36 100 CALM      29.40F
CAMBRIDGE      RAIN      39  34  81 W3        29.38F
RUSH CITY      CLOUDY    39  38  95 CALM      29.39S
MOOSE LAKE     DRIZZLE   37  36  93 CALM      29.36F
HINCKLEY       LGT RAIN  37  37 100 NW3       29.38F
CLOQUET        CLOUDY    39  37  93 W7        29.38F FOG
MCGREGOR       CLOUDY    39  36  87 W3        29.38F
$$
MNZ071>073-080-081-089-090-097-098-232200-
   Southwest Minnesota

CITY           SKY/WX    TMP DP  RH WIND       PRES   REMARKS
MONTEVIDEO     CLOUDY    39  39 100 NW12      29.47S
GRANITE FALLS  CLOUDY    38  34  85 W13       29.48F
CANBY          PTSUNNY   40  33  75 NW14G22   29.48F
MARSHALL       CLOUDY    41  30  65 NW18      29.47S
REDWOOD FALLS  CLOUDY    40  36  86 NW13      29.45S
OLIVIA         CLOUDY    36  36 100 NW8       29.44F
PIPESTONE      CLOUDY    39  34  81 NW16G22   29.47F
WINDOM         DRIZZLE   41  37  87 NW15      29.45S
WORTHINGTON    CLOUDY    39  36  87 NW17      29.47S
JACKSON        CLOUDY    41  37  87 NW17      29.44F
TRACY          CLOUDY    42  36  79 NW15G21   29.47S
SLAYTON        CLOUDY    39  35  83 NW20G25   29.47S
$$
MNZ065>067-074>077-082>085-091>093-232200-
   South Central Minnesota

CITY           SKY/WX    TMP DP  RH WIND       PRES   REMARKS
MANKATO        CLOUDY    43  36  75 NW17G23   29.40F
NEW ULM        LGT RAIN  39  39 100 NW14      29.44R
ST JAMES       CLOUDY    43  39  87 NW20      29.44F
FAIRMONT       CLOUDY    43  36  75 NW21G28   29.41F
GLENCOE        DRIZZLE   40  39  95 NW12      29.40F
FARIBAULT      CLOUDY    45  43  93 W9        29.38S
OWATONNA       CLOUDY    45  43  93 NW13      29.38R FOG
WASECA         CLOUDY    41  36  81 NW13G20   29.39F
ALBERT LEA     CLOUDY    45  45 100 NW10G16   29.36R FOG
$$
MNZ078>079-086>088-094>096-232200-
   Southeast Minnesota

CITY           SKY/WX    TMP DP  RH WIND       PRES   REMARKS
ROCHESTER      FOG       48  48 100 S6        29.36F VSB 1/4
RED WING       FOG       50  48  93 CALM      29.35F VSB 1/2
STANTON        CLOUDY    48  46  92 NW10      29.35S FOG
DODGE CENTER   DRZL/FOG  48  48 100 S3        29.34F VSB 1/4
WINONA         CLOUDY    48  46  93 CALM      29.37F FOG
AUSTIN         DRZL/FOG  48  48 100 S3        29.34F VSB 1
PRESTON        FOG       47  46  97 S5        29.36F VSB<1/4
$$
ABBREVIATIONS USED IN REMARKS
   TC - TEMPERATURES IN CELSIUS
  WCI - WIND CHILL INDEX
   HX - HEAT INDEX
  VSB - VISIBILITY
$$



USA.gov is the U.S. government's official web portal to all federal, state and local government web resources and services.